Location: Brahman Valley
(40.6513°N, 111.8855°W)
Time: 01:25:45
(UTC+00:00)

Transit 4A - Visible Passes

Search period start: 12 May 2021 00:00
Search period end: 22 May 2021 00:00
Orbit: 870 x 974 km, 66.8° (Epoch: 11 May)

Date Brightness Start Highest point End Pass type
(mag) Time Alt. Az. Time Alt. Az. Time Alt. Az.
12 May 11.1 04:10:55 10° WNW 04:13:11 12° NW 04:15:26 10° NNW visible
12 May 9.8 09:36:45 10° N 09:41:43 28° NE 09:46:38 10° ESE visible
12 May 7.9 11:22:41 10° NW 11:28:19 50° WSW 11:33:53 10° S visible
13 May 9.1 09:45:47 10° NNW 09:51:15 39° NE 09:56:38 10° ESE visible
13 May 8.4 11:32:18 10° NW 11:37:27 33° WSW 11:42:34 10° S visible
14 May 10.7 08:10:44 10° NNE 08:12:59 12° NE 08:15:13 10° ENE visible
14 May 8.4 09:54:55 10° NNW 10:00:41 57° ENE 10:06:22 10° SE visible
14 May 8.9 11:42:13 10° WNW 11:46:31 22° WSW 11:50:48 10° SSW visible
15 May 10.4 08:19:08 10° N 08:22:45 16° NE 08:26:22 10° ENE visible
15 May 7.8 10:04:09 10° NNW 10:10:01 84° ENE 10:15:50 10° SSE visible
16 May 10.8 03:00:32 10° WNW 03:03:47 15° NW 03:07:01 10° N visible
16 May 10.0 08:27:54 10° N 08:32:27 23° NE 08:36:56 10° E visible
16 May 7.7 10:13:30 10° NW 10:19:17 66° WSW 10:25:02 10° SSE visible
17 May 11.1 03:12:16 10° NW 03:13:36 11° NNW 03:14:57 10° NNW visible
17 May 9.4 08:36:51 10° NNW 08:42:01 31° NE 08:47:08 10° ESE visible
17 May 8.1 10:23:00 10° NW 10:28:29 43° WSW 10:33:55 10° S visible
18 May 8.7 08:45:56 10° NNW 08:51:31 44° NE 08:57:01 10° SE visible
18 May 8.6 10:32:43 10° NW 10:37:36 28° WSW 10:40:22 19° SSW visible
19 May 10.4 07:10:34 10° N 07:13:23 13° NE 07:16:11 10° ENE visible
19 May 8.0 08:55:06 10° NNW 09:00:55 65° ENE 09:04:17 26° SE visible
19 May 9.1 10:42:47 10° WNW 10:46:39 18° WSW 10:47:41 18° WSW visible
20 May 10.1 07:19:08 10° N 07:23:07 18° NE 07:27:04 10° E visible
20 May 7.6 09:04:22 10° NNW 09:10:13 85° WSW 09:12:02 47° SSE visible
20 May 9.6 10:53:59 10° W 10:55:28 11° W 10:55:28 11° W visible
21 May 9.6 07:27:59 10° N 07:32:46 25° NE 07:36:39 13° E visible
21 May 7.8 09:13:46 10° NW 09:19:28 57° WSW 09:20:05 54° SW visible
